Frederick, MD

6:56 PM EDT on October 22, 2019 (GMT -0400)
Frederick Municipal

Weather History for KFDK - August, 2019

Change the Weather History Date:

Sunday, August 18, 2019

  Actual Average (KHGR) Record (KHGR)
Temperature  
Mean Temperature 82 °F -  
Max Temperature 95 °F 81 °F 95 °F (2002)
Min Temperature 69 °F 63 °F 59 °F (2007)
Cooling Degree Days 17    
Growing Degree Days 32 (Base 50)    
Moisture  
Dew Point 69 °F    
Average Humidity 79    
Maximum Humidity 100    
Minimum Humidity 41    
Precipitation  
Precipitation 0.00 in - - ()
Sea Level Pressure  
Sea Level Pressure 30.01 in    
Wind  
Wind Speed 2 mph (South)    
Max Wind Speed 17 mph    
Max Gust Speed 23 mph    
Visibility 10 miles    
Events Rain , Thunderstorm    
Averages and records for this station are not official NWS values.
T = Trace of Precipitation, MM = Missing Value Source: NWS Daily Summary

Daily Weather History Graph

Daily Weather History Graph

Search for Another Location

Airport or City:

Astronomy

Aug. 18, 2019 Rise Set
Actual Time 6:24 AM EDT 8:01 PM EDT
Civil Twilight 5:56 AM EDT 8:29 PM EDT
Nautical Twilight 5:21 AM EDT 9:04 PM EDT
Astronomical Twilight 4:45 AM EDT 9:40 PM EDT
Moon 9:56 PM EDT (8/18) 9:07 AM EDT (8/18)
Length of Visible Light 14h 33m
Length of Day
13h 36m
Waning Gibbous, 91% of the Moon is Illuminated
Aug 18
Waning Gibbous
Aug 23
Last Quarter
Aug 30
New
Sep 5
First Quarter
Sep 14
Full

Hourly Weather History & Observations

Time (EDT) Temp. Heat Index Dew Point Humidity Pressure Visibility Wind Dir Wind Speed Gust Speed Precip Events Conditions
12:10 AM 75.2 °F - 69.8 °F 83% 30.00 in 10.0 mi Calm Calm - N/A   Clear
12:30 AM 75.2 °F - 69.8 °F 83% 29.99 in 10.0 mi Calm Calm - N/A   Clear
12:50 AM 75.2 °F - 69.8 °F 83% 30.00 in 10.0 mi SE 3.5 mph - N/A   Clear
1:10 AM 73.4 °F - 69.8 °F 88% 29.99 in 10.0 mi SSE 3.5 mph - N/A   Clear
1:30 AM 73.4 °F - 69.8 °F 88% 29.99 in 10.0 mi Calm Calm - N/A   Clear
1:50 AM 73.4 °F - 69.8 °F 88% 29.99 in 10.0 mi Calm Calm - N/A   Clear
2:10 AM 73.4 °F - 69.8 °F 88% 30.00 in 10.0 mi Calm Calm - N/A   Clear
2:30 AM 73.4 °F - 69.8 °F 88% 30.00 in 10.0 mi Calm Calm - N/A   Clear
2:50 AM 71.6 °F - 69.8 °F 94% 30.00 in 10.0 mi Calm Calm - N/A   Clear
3:10 AM 71.6 °F - 69.8 °F 94% 30.00 in 10.0 mi Calm Calm - N/A   Clear
3:30 AM 71.6 °F - 69.8 °F 94% 30.00 in 10.0 mi SE 3.5 mph - N/A   Clear
3:50 AM 71.6 °F - 69.8 °F 94% 30.00 in 10.0 mi Calm Calm - N/A   Clear
4:10 AM 71.6 °F - 69.8 °F 94% 30.00 in 10.0 mi Calm Calm - N/A   Clear
4:30 AM 71.6 °F - 69.8 °F 94% 30.00 in 10.0 mi Calm Calm - N/A   Clear
4:50 AM 71.6 °F - 69.8 °F 94% 30.01 in 10.0 mi Calm Calm - N/A   Clear
5:10 AM 71.6 °F - 69.8 °F 94% 30.01 in 10.0 mi Calm Calm - N/A   Clear
5:30 AM 69.8 °F - 69.8 °F 100% 30.02 in 7.0 mi Calm Calm - N/A   Clear
5:50 AM 69.8 °F - 69.8 °F 100% 30.02 in 10.0 mi Calm Calm - N/A   Clear
6:10 AM 69.8 °F - 68.0 °F 94% 30.02 in 7.0 mi Calm Calm - N/A   Clear
6:30 AM 69.8 °F - 68.0 °F 94% 30.03 in 10.0 mi Calm Calm - N/A   Clear
6:50 AM 69.8 °F - 68.0 °F 94% 30.03 in 7.0 mi Calm Calm - N/A   Clear
7:05 AM 69.8 °F - 68.0 °F 94% 30.03 in 10.0 mi Calm Calm - N/A   Clear
7:50 AM 73.4 °F - 71.6 °F 94% 30.05 in 10.0 mi Calm Calm - N/A   Partly Cloudy
9:47 AM 80.6 °F 84.6 °F 71.6 °F 74% 30.05 in 10.0 mi Calm Calm - N/A   Clear
10:48 AM 86.0 °F 91.8 °F 71.6 °F 62% 30.04 in 10.0 mi Calm Calm - N/A   Clear
11:50 AM 89.6 °F 96.2 °F 71.6 °F 55% 30.05 in 10.0 mi Calm Calm - N/A   Clear
12:47 PM 91.4 °F 94.0 °F 66.2 °F 43% 30.03 in 10.0 mi South 4.6 mph - N/A   Clear
1:47 PM 93.2 °F 97.7 °F 68.0 °F 44% 30.02 in 10.0 mi Calm Calm - N/A   Clear
2:47 PM 93.2 °F 98.8 °F 69.8 °F 46% 30.00 in 10.0 mi SSW 9.2 mph - N/A   Scattered Clouds
3:47 PM 95.0 °F 101.3 °F 69.8 °F 44% 29.99 in 10.0 mi SSW 5.8 mph - N/A   Scattered Clouds
4:47 PM 95.0 °F 101.3 °F 69.8 °F 44% 29.98 in 10.0 mi SW 8.1 mph - N/A   Scattered Clouds
5:47 PM 93.2 °F 96.2 °F 66.2 °F 41% 29.98 in 10.0 mi South 11.5 mph - N/A   Clear
6:47 PM 89.6 °F 92.2 °F 66.2 °F 46% 29.96 in 10.0 mi Calm Calm - N/A   Clear
7:47 PM 86.0 °F 91.8 °F 71.6 °F 62% 29.98 in 10.0 mi Calm Calm - N/A Thunderstorm Clear
8:47 PM 82.4 °F 85.4 °F 68.0 °F 62% 30.02 in 7.0 mi West 17.3 mph 23.0 mph N/A Rain , Thunderstorm Heavy Thunderstorms and Rain
9:30 PM 73.4 °F - 64.4 °F 73% 30.04 in 10.0 mi SE 8.1 mph - N/A Rain , Thunderstorm Light Thunderstorms and Rain
9:50 PM 73.4 °F - 68.0 °F 83% 30.02 in 10.0 mi ESE 6.9 mph - N/A Rain , Thunderstorm Light Thunderstorms and Rain
10:10 PM 73.4 °F - 68.0 °F 83% 30.03 in 10.0 mi ESE 5.8 mph - N/A Rain , Thunderstorm Light Thunderstorms and Rain
10:30 PM 73.4 °F - 68.0 °F 83% 30.03 in 10.0 mi NW 5.8 mph - N/A Rain Light Rain
10:50 PM 73.4 °F - 68.0 °F 83% 30.02 in 10.0 mi NW 4.6 mph - N/A   Scattered Clouds
11:10 PM 73.4 °F - 68.0 °F 83% 30.01 in 10.0 mi Calm Calm - N/A Thunderstorm Clear
11:30 PM 71.6 °F - 69.8 °F 94% 30.01 in 10.0 mi SE 4.6 mph - N/A Thunderstorm Clear
11:50 PM 71.6 °F - 68.0 °F 88% 30.02 in 10.0 mi Calm Calm - N/A   Clear